This is the latest recevied weather packets stored in our database for station/object K2CAT. If no packets are shown the sender has not sent any weather packets the latest 1 day(s).
| Time | Temp. | Humidity | Pressure | Rain* | Wind** | Luminosity | Snow |
|---|---|---|---|---|---|---|---|
| 1778026413 | 25.56° C | 40% | 1006.5 hPa | 0 mm | 0 m/s | 0 W/m² | - |
| 1778026110 | 25.56° C | 40% | 1006.3 hPa | 0 mm | 0.45 m/s, 303° | 0 W/m² | - |
| 1778025808 | 25.56° C | 39% | 1006.3 hPa | 0 mm | 0.45 m/s, 141° | 0 W/m² | - |
| 1778025504 | 25.56° C | 39% | 1006.4 hPa | 0 mm | 0.45 m/s, 133° | 0 W/m² | - |
| 1778025202 | 25.56° C | 39% | 1006.4 hPa | 0 mm | 0.45 m/s, 217° | 1 W/m² | - |
| 1778024898 | 25.56° C | 38% | 1006.4 hPa | 0 mm | 1.79 m/s, 58° | 1 W/m² | - |
| 1778024596 | 25.56° C | 39% | 1006.2 hPa | 0 mm | 0.45 m/s, 236° | 1 W/m² | - |
| 1778024293 | 25.56° C | 40% | 1006 hPa | 0 mm | 0.45 m/s, 142° | 2 W/m² | - |
| 1778023991 | 25.56° C | 39% | 1006.1 hPa | 0 mm | 0 m/s | 2 W/m² | - |
| 1778023688 | 25.56° C | 39% | 1005.9 hPa | 0 mm | 0 m/s | 4 W/m² | - |
| 1778023385 | 26.11° C | 38% | 1006.1 hPa | 0 mm | 0 m/s | 7 W/m² | - |
| 1778023082 | 25.56° C | 38% | 1005.8 hPa | 0 mm | 0.45 m/s, 277° | 11 W/m² | - |
| 1778022780 | 26.11° C | 37% | 1005.9 hPa | 0 mm | 0.89 m/s, 196° | 10 W/m² | - |
| 1778022478 | 26.11° C | 38% | 1005.8 hPa | 0 mm | 0.89 m/s, 110° | 7 W/m² | - |
| 1778022175 | 26.11° C | 37% | 1005.7 hPa | 0 mm | 0.89 m/s, 200° | 9 W/m² | - |
| 1778021871 | 26.11° C | 37% | 1005.7 hPa | 0 mm | 0.89 m/s, 103° | 13 W/m² | - |
| 1778021569 | 26.11° C | 37% | 1005.6 hPa | 0 mm | 0.45 m/s, 214° | 15 W/m² | - |
| 1778021263 | 26.67° C | 36% | 1005.6 hPa | 0 mm | 0.89 m/s, 277° | 17 W/m² | - |
| 1778020961 | 26.67° C | 36% | 1005.6 hPa | 0 mm | 0.45 m/s, 259° | 20 W/m² | - |
| 1778020659 | 26.67° C | 36% | 1005.5 hPa | 0 mm | 0.45 m/s, 281° | 31 W/m² | - |
| 1778020355 | 26.67° C | 36% | 1005.3 hPa | 0 mm | 0.45 m/s, 75° | 51 W/m² | - |
| 1778020051 | 26.67° C | 35% | 1005.3 hPa | 0 mm | 0 m/s | 23 W/m² | - |
| 1778019747 | 26.67° C | 34% | 1005.2 hPa | 0 mm | 0.89 m/s, 47° | 13 W/m² | - |
| 1778019445 | 26.67° C | 34% | 1005.2 hPa | 0 mm | 0.89 m/s, 110° | 13 W/m² | - |
| 1778019141 | 27.22° C | 35% | 1005.2 hPa | 0 mm | 0.89 m/s, 31° | 14 W/m² | - |
* Rain latest hour (hover to see other rain measurements)
** Current wind speed in m/s (hover to see current wind gust speed)